Location: Maiden_LMO
(35.5760°N, 81.2120°W)
Time: 18:50:15
(UTC-04:00)

ADEOS II - Visible Passes

Search period start: 20 October 2014 00:00
Search period end: 30 October 2014 00:00
Orbit: 802 x 802 km, 98.3° (Epoch: 19 October)

Date Brightness Start Highest point End Pass type
(mag) Time Alt. Az. Time Alt. Az. Time Alt. Az.
21 Oct 3.1 07:03:02 10° NNE 07:08:10 53° E 07:13:17 10° S visible
21 Oct 5.4 20:02:03 10° WSW 20:04:47 14° W 20:07:32 10° WNW visible
22 Oct 4.3 06:37:31 10° NE 06:42:04 29° E 06:46:35 10° SSE visible
22 Oct 4.6 19:34:14 10° SSW 19:38:33 26° W 19:42:55 10° NW visible
23 Oct 5.2 06:12:39 10° NE 06:15:51 16° E 06:19:02 10° SE visible
23 Oct 3.4 19:07:24 10° S 19:12:25 47° W 19:17:29 10° NNW visible
25 Oct 3.3 06:58:48 10° NNE 07:03:53 48° E 07:08:57 10° S visible
25 Oct 5.3 19:57:24 10° SW 20:00:28 16° W 20:03:33 10° NW visible
26 Oct 4.5 06:33:21 10° NE 06:37:46 27° E 06:42:09 10° SSE visible
26 Oct 4.4 19:29:47 10° SSW 19:34:15 28° W 19:38:45 10° NW visible
27 Oct 5.3 06:08:39 10° ENE 06:11:32 15° E 06:14:25 10° SE visible
27 Oct 3.2 19:03:03 10° S 19:08:08 51° W 19:13:15 10° NNW visible
29 Oct 3.4 06:54:34 10° NNE 06:59:36 44° E 07:04:35 10° S visible
29 Oct 5.2 19:52:48 10° SW 19:56:09 17° W 19:59:30 10° NW visible
